Location: Unspecified
(29.8658°N, 0.0000°E)
Time: 20:54:21
(UTC+00:00)

USA 481 - Visible Passes

Search period start: 04 April 2026 00:00
Search period end: 14 April 2026 00:00
Orbit: 575 x 578 km, 70.0° (Epoch: 19 December)

Date Brightness Start Highest point End Pass type
(mag) Time Alt. Az. Time Alt. Az. Time Alt. Az.
4 Apr ? 04:18:28 47° SW 04:19:28 64° WNW 04:23:39 10° NNE visible
5 Apr ? 02:46:44 11° E 02:46:44 11° E 02:47:06 10° ENE visible
5 Apr ? 04:23:02 37° W 04:23:27 38° WNW 04:27:23 10° N visible
6 Apr ? 02:51:11 15° ENE 02:51:11 15° ENE 02:52:21 10° ENE visible
6 Apr ? 04:27:29 24° WNW 04:27:29 24° WNW 04:30:54 10° N visible
7 Apr ? 02:55:32 18° NE 02:55:32 18° NE 02:56:53 10° NE visible
7 Apr ? 04:31:49 15° NW 04:31:49 15° NW 04:34:02 10° NNW visible
8 Apr ? 02:59:47 19° NE 02:59:47 19° NE 03:01:07 10° NNE visible
9 Apr ? 03:03:59 18° NNE 03:03:59 18° NNE 03:05:07 10° NNE visible
10 Apr ? 03:08:06 15° N 03:08:06 15° N 03:08:57 10° N visible
11 Apr ? 03:12:10 12° N 03:12:10 12° N 03:12:35 10° N visible
